This is the latest recevied weather packets stored in our database for station/object W8CEN. If no packets are shown the sender has not sent any weather packets the latest 10 day(s).
| Time | Temp. | Humidity | Pressure | Rain* | Wind** | Luminosity | Snow |
|---|---|---|---|---|---|---|---|
| 1777848604 | 16.67° C | 36% | 989.7 hPa | 0 mm | - | 81 W/m² | - |
| 1777848301 | 16.67° C | 35% | 989.9 hPa | 0 mm | - | 192 W/m² | - |
| 1777847999 | 16.67° C | 36% | 989.8 hPa | 0 mm | - | 202 W/m² | - |
| 1777847697 | 16.67° C | 37% | 989.8 hPa | 0 mm | - | 126 W/m² | - |
| 1777847392 | 16.67° C | 37% | 989.9 hPa | 0 mm | - | 153 W/m² | - |
| 1777847091 | 16.67° C | 35% | 989.7 hPa | 0 mm | - | 254 W/m² | - |
| 1777846789 | 16.67° C | 36% | 989.8 hPa | 0 mm | - | 112 W/m² | - |
| 1777846487 | 16.67° C | 37% | 989.9 hPa | 0 mm | - | 312 W/m² | - |
| 1777846183 | 16.67° C | 36% | 989.8 hPa | 0 mm | - | 303 W/m² | - |
| 1777845879 | 16.67° C | 36% | 989.9 hPa | 0 mm | - | 140 W/m² | - |
| 1777845577 | 17.22° C | 35% | 990 hPa | 0 mm | - | 365 W/m² | - |
| 1777845273 | 17.22° C | 35% | 989.8 hPa | 0 mm | - | 375 W/m² | - |
| 1777844971 | 17.22° C | 34% | 989.9 hPa | 0 mm | - | 413 W/m² | - |
| 1777844669 | 17.22° C | 34% | 990.1 hPa | 0 mm | - | 406 W/m² | - |
| 1777844366 | 17.22° C | 35% | 990 hPa | 0 mm | - | 401 W/m² | - |
| 1777844064 | 17.78° C | 33% | 990.1 hPa | 0 mm | - | 133 W/m² | - |
| 1777843760 | 17.78° C | 32% | 990.1 hPa | 0 mm | - | 257 W/m² | - |
| 1777843458 | 17.78° C | 35% | 990 hPa | 0 mm | - | 436 W/m² | - |
| 1777843155 | 17.22° C | 35% | 990.1 hPa | 0 mm | - | 282 W/m² | - |
| 1777842852 | 17.22° C | 34% | 990.1 hPa | 0 mm | - | 461 W/m² | - |
| 1777842547 | 17.78° C | 34% | 990 hPa | 0 mm | - | 470 W/m² | - |
| 1777842244 | 17.78° C | 33% | 990 hPa | 0 mm | - | 545 W/m² | - |
| 1777841939 | 17.78° C | 32% | 990 hPa | 0 mm | - | 517 W/m² | - |
| 1777841636 | 17.78° C | 32% | 990.3 hPa | 0 mm | - | 516 W/m² | - |
| 1777841332 | 17.78° C | 32% | 990.2 hPa | 0 mm | - | 551 W/m² | - |
* Rain latest hour (hover to see other rain measurements)
** Current wind speed in m/s (hover to see current wind gust speed)